Regional Weather Roundup
Issued by NWS

Home | Current Version | Previous Version | Text Only | Print | Product List | Glossary On
Versions: 1 2 3 4 5 6 7 8 9 10 11 12 13 14 15 16 17 18 19 20 21 22 23 24 25 26 27 28 29 30 31 32 33 34 35 36 37 38 39 40 41 42 43 44 45 46 47 48 49 50
000
ASCA42 TJSJ 170111
RWRPR
PUERTO RICO/U.S. VIRGIN ISLANDS HOURLY WEATHER ROUNDUP
NATIONAL WEATHER SERVICE SAN JUAN PR
900 PM AST WED APR 16 2014

PRZ001-004-170200-
PUERTO RICO

CITY           SKY/WX    TMP DP  RH WIND       PRES   REMARKS
SAN JUAN LMM   PTCLDY    81  72  74 E6        30.00R
AGUADILLA      PTCLDY    77  70  78 E16       30.00S
CEIBA          PTCLDY    79  72  78 NE7       30.02R
$$

PRZ006-007-170200-
U.S. VIRGIN ISLANDS

CITY           SKY/WX    TMP DP  RH WIND       PRES   REMARKS
CHARLOTTE AMA  CLEAR     77  73  88 E7        29.99R
CHRISTIANSTED  CLEAR     77  70  78 E6        29.99R
$$

HOURLY WEATHER ROUNDUP FOR THE NEWS MEDIA

CITY           SKY/WX    TMP DP  RH WIND       PRES   REMARKS
MIAMI          CLOUDY    77  68  73 E13       30.05R
ORLANDO        PTCLDY    66  57  72 N9        30.15R
NEW YORK       PTCLDY    43  16  33 NE9       30.51R
NEWARK         PTCLDY    44  15  31 N10       30.50R
CHICAGO        CLOUDY    49  23  36 SE21      30.13R
HARTFORD       CLEAR     37  17  44 N6        30.51R WCI  32
BOSTON         CLEAR     38  13  35 N9        30.55R WCI  31
DALLAS         PTCLDY    63  40  42 S15       29.95S
PHILADELPHIA   PTCLDY    43  16  33 NE7       30.52R



USA.gov is the U.S. government's official web portal to all federal, state and local government web resources and services.